Montana Department of Transportation

Main Content

Accidents and Incidents Report

Hourly Weather Roundup

ASUS45 KTFX 171310
RWRMT 
MONTANA REGIONAL WEATHER ROUNDUP
NATIONAL WEATHER SERVICE GREAT FALLS MT
700 AM MDT TUE OCT 17 2017

NOTE: "FAIR" INDICATES FEW OR NO CLOUDS BELOW 12000 FEET WITH NO
SIGNIFICANT WEATHER AND/OR OBSTRUCTIONS TO VISIBILITY.

MTZ001.007-043-171400-
WEST OF THE DIVIDE
  
CITY           SKY/WX    TMP DP  RH WIND       PRES   REMARKS
KALISPELL      CLEAR     27  26  96 SW6       29.97F WCI  20          
MISSOULA       CLEAR     27  24  89 N3        30.09F                  
BUTTE          CLOUDY    26  22  84 CALM      30.17F                  
MULLAN PASS    CLEAR     40  22  48 VRB3      30.06F                  
ANACONDA         N/A     45  19  36 SE12G17   30.12F                  
DEER LODGE       N/A     45  23  42 S8G18     30.12F                  
EUREKA           N/A     45  28  53 MISG      29.94F                  
HAMILTON         N/A     46  25  42 S18       30.09F                  
LIBBY            N/A     28  28 100 CALM      29.96F                  
PLAINS           N/A     27  21  77 CALM      30.03F                  
--------------------------------

MTZ008-052.055-171400-
SOUTHWEST MONTANA
  
CITY           SKY/WX    TMP DP  RH WIND       PRES   REMARKS
BOZEMAN        CLOUDY    29  24  82 CALM      30.14F                  
DILLON         CLOUDY    38  20  48 S14       30.19F WCI  30          
W YELLOWSTONE  CLOUDY    18  14  86 CALM      30.33F                  
ENNIS          CLOUDY    37  21  52 S14       30.25S WCI  29          
THREE FORKS      N/A     26  20  78 CALM      30.11S                  
TWIN BRIDGES     N/A     32  17  54 CALM      30.15F                  
--------------------------------

MTZ009-010-012-014-046-048-049-054-171400-
EAST SLOPES AND CENTRAL MONTANA
  
CITY           SKY/WX    TMP DP  RH WIND       PRES   REMARKS
CUT BANK       PTCLDY    52  19  27 SW14      29.85R                  
GREAT FALLS    CLOUDY    56  21  25 SW16      29.95F                  
MALMSTROM AFB  CLOUDY    53  23  31 SW16      29.94F                  
HELENA         CLOUDY    42  28  57 NW3       30.06F                  
CHOTEAU          N/A     57  21  24 SW14      29.93S                  
--------------------------------

MTZ011-013-016-021-045-047-050-051-171400-
NORTH CENTRAL MONTANA
  
CITY           SKY/WX    TMP DP  RH WIND       PRES   REMARKS
HAVRE          CLEAR     55  26  32 SW26G33   29.82F                  
LEWISTOWN      CLOUDY    53  20  27 SW16      29.98F                  
N BAR RANCH      N/A     46  12  25 NW6G12    29.99R                  
CHINOOK          N/A     61  25  25 SW22G28   29.79F                  
--------------------------------

MTZ017.020-022.027-061-062-171400-
NORTHEAST MONTANA
  
CITY           SKY/WX    TMP DP  RH WIND       PRES   REMARKS
GLASGOW        CLOUDY    49  27  42 SW9       29.84F                  
JORDAN           N/A     44  27  51 W6        29.89F                  
SIDNEY         CLOUDY    40  31  70 S12       29.87F                  
WOLF POINT     CLOUDY    38  29  70 W5        29.85F                  
MALTA          CLEAR     57  25  28 W16       29.80F                  
PLENTYWOOD       N/A     46  27  46 CALM      29.79F                  
POPLAR           N/A     45  28  53 SW6       29.84F                  
SCOBEY           N/A     49  22  34 SW14      29.79F                  
--------------------------------

MTZ028.42-056.058-171400-
SOUTHCENTRAL AND SOUTHEAST MONTANA
  
CITY           SKY/WX    TMP DP  RH WIND       PRES   REMARKS
BAKER          CLEAR     51  26  37 SW16      29.97F                  
BILLINGS       CLEAR     47  22  37 SW13      30.03F                  
LIVINGSTON     CLOUDY    50  21  32 W23G30    30.09F                  
MILES CITY     CLEAR     40  28  62 S8        29.96F                  
BIG TIMBER     CLEAR     50  18  27 W21G38    30.08S                  
EKALAKA          N/A     55  18  23 SW9       29.99S                  
FORSYTH          N/A     55  19  24 SW6       29.96FLAUREL           N/A     41  21  45 SW10      30.05F                  
--------------------------------

REGIONAL REPORTS...DAKOTAS
  
CITY           SKY/WX    TMP DP  RH WIND       PRES   REMARKS
WILLISTON      CLOUDY    43  32  65 SW10      29.83F                  
MINOT          CLOUDY    49  32  52 SW13      29.79F                  
DICKINSON      CLEAR     47  26  44 SW14      29.90F                  
BEACH            N/A     45  25  45 SW15      29.95F                  
CROSBY           N/A     43  30  61 SW14      29.77F                  
TIOGA            N/A     46  28  49 SW18      29.82F                  
WATFORD CITY     N/A     41  30  65 W5        29.85F                  
BISMARCK       CLOUDY    33  29  85 E5        29.92F                  
GRAND FORKS    CLOUDY    37  34  89 S9        29.87F WCI  30          
FARGO          CLOUDY    40  35  83 S6        29.93F                  
BUFFALO SD       N/A     46  24  42 W7        29.94F                  
RAPID CITY     CLEAR     46  23  40 W8        30.06S                  
--------------------------------

REGIONAL REPORTS...WYOMING/IDAHO/WASHINGTON
  
CITY           SKY/WX    TMP DP  RH WIND       PRES   REMARKS
GILLETTE       CLOUDY    48  23  37 S5        30.08F                  
SHERIDAN       CLEAR     34  23  64 CALM      30.05F                  
BUFFALO WY     CLOUDY    48  11  22 SW8       30.11F                  
CODY           CLEAR     54  16  22 VRB6      30.18S                  
YELLOWSTONE LA   N/A     21  32 100 NW3       30.36F                  
IDAHO FALLS    CLOUDY    27  23  85 N6        30.30F WCI  20          
SALMON         CLOUDY    24  20  84 CALM      30.26F                  
BOISE          CLEAR     40  29  64 SE8       30.20F                  
SPOKANE        CLEAR     45  33  63 S15       29.96F                  
--------------------------------

REGIONAL REPORTS...ALBERTA
  
CITY           SKY/WX    TMP DP  RH WIND       PRES   REMARKS
EDMONTON       MOCLDY    37  34  87 SE5       29.42F                  
CALGARY        MOCLDY    43  32  65 S5        29.54F                  
LETHBRIDGE     PTCLDY    55  30  38 SW20      29.71F                  
MEDICINE HAT   PTCLDY    57  32  38 W24G33    29.59F                  
--------------------------------

REGIONAL REPORTS...SASKATCHEWAN
  
CITY           SKY/WX    TMP DP  RH WIND       PRES   REMARKS
SWIFT CURRENT  CLEAR     45  27  49 SW18      29.69F                  
REGINA         PTCLDY    46  28  49 SW13      29.69R                  
SASKATOON      MOCLDY    37  34  87 SW8       29.59F WCI  31          
--------------------------------